Regional Weather Roundup
Issued by NWS

Home | Current Version | Previous Version | Graphics & Text | Print | Product List | Glossary On
Versions: 1 2 3 4 5 6 7 8 9 10 11 12 13 14 15 16 17 18 19 20 21 22 23 24 25 26 27 28 29 30 31 32 33 34 35 36 37 38 39 40 41 42 43 44 45 46 47 48 49 50
000
ASUS45 KBOU 050607
RWRCO

WEATHER ROUNDUP FOR COLORADO
NATIONAL WEATHER SERVICE DENVER/BOULDER CO
1200 AM MDT WED AUG 05 2015

NOTE: "FAIR" INDICATES FEW OR NO CLOUDS BELOW 12000 FEET WITH NO
SIGNIFICANT WEATHER AND/OR OBSTRUCTIONS TO VISIBILITY.

COZ001>005-013-030-031-050700-
...NORTHWEST COLORADO...

CITY           SKY/WX    TMP DP  RH WIND       PRES   REMARKS
CRAIG          NOT AVBL
HAYDEN         CLEAR     61  43  51 E10       30.24F
MEEKER         CLEAR     61  40  45 E9        30.25R
MOUNT WERNER   NOT AVBL
STEAMBOAT SPGS   N/A    N/A N/A N/A MISG        N/A
WALDEN         MOCLDY    48  37  66 E6        30.37R
$$

COZ006>008-011-050700-
...WEST CENTRAL VALLEYS...

CITY           SKY/WX    TMP DP  RH WIND       PRES   REMARKS
GRAND JUNCTION CLEAR     70  38  31 E6        30.08F
MONTROSE       CLEAR     67  45  45 SE12      30.21S
EAGLE          CLEAR     61  39  44 E3        30.30R
RIFLE          CLEAR     66  46  48 E3        30.18R
DELTA          CLEAR     71  40  31 NE7       30.15S
NUCLA          CLEAR     64  46  52 E10       30.24F
$$

COZ017>023-064>068-050700-
...SOUTHWEST COLORADO...

CITY           SKY/WX    TMP DP  RH WIND       PRES   REMARKS
DURANGO        CLEAR     62  42  47 CALM      30.27S
CORTEZ         CLEAR     61  47  59 E5        30.20S
PAGOSA SPRINGS CLEAR     57  40  53 CALM      30.36S
TELLURIDE      CLEAR     56  42  60 SE5       30.49F
WOLF CREEK PAS NOT AVBL
$$

COZ009-010-012-014-032>034-037-058>063-050700-
...CENTRAL COLORADO...

CITY           SKY/WX    TMP DP  RH WIND       PRES   REMARKS
ASPEN          CLEAR     55  41  59 SW8       30.36S
BUENA VISTA    CLEAR     56  39  52 CALM      30.38S
COPPER MTN     CLEAR     52  32  46 W8        30.67F
BERTHOUD PASS  FAIR      41  32  70 NW21      30.69F
COTTONWOOD PAS CLEAR     61  32  33 W8        30.52S
GUNNISON       CLEAR     54  41  62 CALM      30.40S
KREMMLING      CLEAR     54  36  50 CALM      30.34F
LEADVILLE      CLEAR     45  34  65 E5        30.51S
MONARCH PASS   CLEAR     50  32  50 NW8       30.78F
SALIDA         CLEAR     60  39  44 W9        30.42S
SUNLIGHT       CLEAR     55  36  47 CALM      30.61S
WILKERSON PASS NOT AVBL
$$

COZ069>075-050700-
...SAN LUIS VALLEY/SANGRE DE CRISTO MOUNTAINS...

CITY           SKY/WX    TMP DP  RH WIND       PRES   REMARKS
ALAMOSA        PTCLDY    57  43  59 W6        30.33S
LA VETA PASS   CLOUDY    54  46  76 MISG      30.54S
SAGUACHE       CLEAR     55  39  54 NW13      30.37S
$$

COZ035-036-038>040-050700-
...NORTHERN COLORADO FRONT RANGE...

CITY           SKY/WX    TMP DP  RH WIND       PRES   REMARKS
DENVER INTL AP CLEAR     65  53  65 SE13      30.15F
DMNS CITY PARK   N/A     66  52  60 W6        30.17R
AURORA         PTCLDY    63  55  75 SE8       30.19R
FRONT RANGE AP NOT AVBL
ERIE MUNI ARPT CLEAR     64  50  61 CALM      30.16S
BOULDER MUN AP CLEAR     68  50  52 SW5       30.17S
CENTENNIAL     PTCLDY    63  50  62 S3        30.20R
BROOMFIELD     CLEAR     64  48  55 NW9       30.19S
FORT COLLINS   CLEAR     68  54  60 CALM      30.16S
LONGMONT       CLEAR     65  52  63 W6        30.17S
$$

COZ041-046-047-076>085-087-088-050700-
...PIKES PEAK/PALMER DIVIDE AND SOUTHERN FOOTHILLS...

CITY           SKY/WX    TMP DP  RH WIND       PRES   REMARKS
COLO. SPRINGS  PTCLDY    62  53  72 CALM      30.27R
A. F. ACADEMY  CLEAR     55  49  80 N5        30.28R
ELLICOTT       PTCLDY   N/A N/A N/A E9        30.23R
FALCON         PTCLDY    58  52  80 W3        30.31R
FORT CARSON    PTCLDY    65  55  69 CALM      30.23R
LIMON          PTCLDY    54  52  93 N5        30.19S
MONUMENT HILL  CLEAR     54  50  87 S7        30.30R
TRINIDAD       CLEAR     66  44  45 NW12      30.18R
$$

COZ042>045-048>051-090-091-050700-
...NORTHEAST COLORADO...

CITY           SKY/WX    TMP DP  RH WIND       PRES   REMARKS
GREELEY ARPT   CLEAR     61  54  77 N6        30.14S
AKRON          PTCLDY    64  57  78 SW8       30.12R
BURLINGTON     CLEAR     64  61  90 SW5       30.09S
WRAY           CLEAR     61  60  98 CALM      30.08R
STERLING       PTCLDY    61  55  82 NW3       30.08S
HOLYOKE        PTCLDY    61  59  94 E3        30.08S
FORT MORGAN    PTCLDY    64  53  67 CALM      30.12S
$$

COZ086-089-092>099-050700-
...SOUTHEAST COLORADO...

CITY           SKY/WX    TMP DP  RH WIND       PRES   REMARKS
PUEBLO         PTCLDY    70  58  65 NW6       30.15R
LA JUNTA       PTCLDY    70  63  78 NE8       30.07R
LAMAR          PTCLDY    72  63  73 E7        30.02R
SPRINGFIELD      N/A     70  64  81 S7        30.06R
$$



USA.gov is the U.S. government's official web portal to all federal, state and local government web resources and services.